Weather History for Kendall, FL

Change the Weather History Date:

Sunday, November 6, 2011

  Actual Average Record
Temperature  
Mean Temperature 75 °F -  
Max Temperature 82 °F 82 °F 89 °F (1992)
Min Temperature 68 °F 64 °F 48 °F (2010)
Cooling Degree Days 10    
Growing Degree Days 25 (Base 50)    
Moisture  
Dew Point 65 °F    
Average Humidity 76    
Maximum Humidity 96    
Minimum Humidity 53    
Precipitation  
Precipitation 0.00 in - - ()
Sea Level Pressure  
Sea Level Pressure 30.04 in    
Wind  
Wind Speed 9 mph (NNE)    
Max Wind Speed 22 mph    
Max Gust Speed 28 mph    
Visibility 10 miles    
Events Rain    
Averages and records for this station are not official NWS values.
T = Trace of Precipitation, MM = Missing Value Source: NWS Daily Summary

Daily Weather History Graph

Daily Weather History Graph

Search for Another Location

Airport:

Trip Planner

Search our weather history database for the weather conditions in past years. The results will help you decide how hot, cold, wet, or windy it might be!

Date:

Astronomy

Nov. 06, 2011 Rise Set
Actual Time 6:32 AM EST 5:37 PM EST
Civil Twilight 6:09 AM EST 6:01 PM EST
Nautical Twilight 5:41 AM EST 6:28 PM EST
Astronomical Twilight 5:14 AM EST 6:55 PM EST
Moon 3:04 PM EST (11/6) 2:57 AM EST (11/6)
Length of Visible Light 11h 52m
Length of Day
11h 04m
Waxing Gibbous, 85% of the Moon is Illuminated
Nov 6
Waxing Gibbous
Nov 10
Full
Nov 18
Last Quarter
Nov 25
New
Dec 2
First Quarter

Hourly Weather History & Observations

Time (EST) Temp. Heat Index Dew Point Humidity Pressure Visibility Wind Dir Wind Speed Gust Speed Precip Events Conditions
12:53 AM 69.1 °F - 66.9 °F 93% 30.00 in 10.0 mi North 6.9 mph - 0.00 in Rain Light Rain
1:53 AM 69.1 °F - 66.9 °F 93% 29.99 in 10.0 mi NNW 4.6 mph - 0.00 in   Overcast
1:33 AM 69.8 °F - 66.2 °F 88% 29.99 in 10.0 mi North 8.1 mph - 0.00 in   Mostly Cloudy
1:53 AM 69.1 °F - 66.9 °F 93% 29.99 in 9.0 mi North 5.8 mph - 0.00 in Rain Light Rain
2:53 AM 68.0 °F - 66.9 °F 96% 29.99 in 10.0 mi NNW 5.8 mph - 0.00 in   Scattered Clouds
3:53 AM 70.0 °F - 66.9 °F 90% 30.00 in 9.0 mi North 4.6 mph - 0.00 in Rain Light Rain
4:53 AM 69.1 °F - 66.9 °F 93% 30.01 in 10.0 mi NNW 8.1 mph - 0.00 in   Overcast
5:53 AM 69.1 °F - 66.0 °F 90% 30.03 in 10.0 mi North 8.1 mph - N/A   Overcast
6:53 AM 68.0 °F - 66.0 °F 93% 30.04 in 10.0 mi NNW 5.8 mph - 0.00 in Rain Light Rain
7:53 AM 70.0 °F - 66.0 °F 87% 30.06 in 10.0 mi North 8.1 mph - N/A   Scattered Clouds
8:53 AM 73.0 °F - 66.9 °F 81% 30.08 in 10.0 mi North 8.1 mph - N/A   Clear
9:53 AM 75.0 °F - 66.9 °F 76% 30.08 in 10.0 mi North 3.5 mph - 0.00 in   Mostly Cloudy
10:53 AM 78.1 °F - 66.0 °F 66% 30.08 in 10.0 mi ENE 15.0 mph - 0.00 in   Mostly Cloudy
11:53 AM 81.0 °F 82.7 °F 64.9 °F 58% 30.06 in 10.0 mi ENE 18.4 mph 27.6 mph N/A   Scattered Clouds
12:53 PM 81.0 °F 82.7 °F 64.9 °F 58% 30.05 in 10.0 mi ENE 18.4 mph 25.3 mph N/A   Scattered Clouds
1:53 PM 82.9 °F 84.4 °F 64.0 °F 53% 30.03 in 10.0 mi ENE 18.4 mph - N/A   Clear
2:53 PM 80.1 °F 81.9 °F 64.9 °F 60% 30.03 in 10.0 mi ENE 17.3 mph 27.6 mph N/A   Mostly Cloudy
3:53 PM 79.0 °F - 64.0 °F 60% 30.03 in 10.0 mi ENE 21.9 mph - N/A   Partly Cloudy
4:53 PM 78.1 °F - 64.0 °F 62% 30.04 in 10.0 mi ENE 16.1 mph 25.3 mph N/A   Partly Cloudy
5:53 PM 75.9 °F - 64.0 °F 67% 30.05 in 10.0 mi NE 15.0 mph - N/A   Partly Cloudy
6:53 PM 75.0 °F - 64.0 °F 69% 30.07 in 10.0 mi ENE 10.4 mph - N/A   Scattered Clouds
7:53 PM 75.0 °F - 64.0 °F 69% 30.09 in 10.0 mi NE 9.2 mph - N/A   Clear
8:53 PM 73.9 °F - 64.0 °F 71% 30.09 in 10.0 mi ENE 8.1 mph - N/A   Clear
9:53 PM 73.9 °F - 63.0 °F 68% 30.10 in 10.0 mi ENE 11.5 mph - N/A   Clear
10:53 PM 73.0 °F - 63.0 °F 71% 30.09 in 10.0 mi NE 9.2 mph - N/A   Clear